Volver al catálogo

STARLINK-35712

ActivoComunicacionesVLEO
NORAD 66215·PAYLOAD·🇺🇸 United States

Lanzado Oct 28, 2025 desde Vandenberg Space Force Base

Loading…

Próximos Pases (próximas 24 horas)

TLE

ActualizadoSource: CelesTrak SupGP

Época: Sep 15, 2026, 03:50 UTC

1 66215C 25244K   26258.16020833 -.00025039  00000+0 -73990-3 0  2582
2 66215  53.1585  66.9256 0001182  86.5539 120.4827 15.34398383    13

Sigue STARLINK-35712 en tiempo real con AllMySat

Download on the App Store